weather.gov     
National Weather Service

Terminal Aerodrome Forecast
NWS Homepage
This page is being discontinued on March 12, 2014.
The same data is available at this site. Please update your bookmarks.
Thank you, and we apologize for the inconvenience.
Please send an email to SR-SRH.Webmaster@noaa.gov with any concerns.


Current Version
Previous Version:    01  02  03  04  05  06  07  08  09  10  11  12  13  14  15  16  17  18  19  20  21  22  23  24  25  26  27  28  29  30  
   31  32  33  34  35  36  37  38  39  
[Printable]
402
FTUS41 KCLE 281700
TAFFDY
TAF
KFDY 281720Z 2818/2918 15006KT P6SM BKN250
     FM290200 14004KT P6SM OVC120
     FM290900 14011KT P6SM OVC060
     FM291100 16014G22KT 6SM BR SCT012 OVC050
      TEMPO 2911/2913 5SM -FZRA BR OVC012
     FM291300 18015G25KT 4SM -FZRA BR OVC012
      TEMPO 2914/2918 2SM -FZRAPL BR OVC008=


U.S. Dept. of Commerce
NOAA National Weather Service
1325 East West Highway
Silver Spring, MD 20910
E-mail: w-nws.webmaster@noaa.gov
Page last modified: May 16, 2007
NATIONAL WEATHER SERVICE: for Safety, for Work, for Fun - FOR LIFE